Regional Weather Roundup
Issued by NWS State College, PA

Home | Current Version | Previous Version | Text Only | Print | Product List | Glossary On
Versions: 1 2 3 4 5 6 7 8 9 10 11 12 13 14 15 16 17 18 19 20 21 22 23 24 25 26 27 28 29 30 31 32 33 34 35 36 37 38 39 40 41 42 43 44 45 46 47 48 49 50
000
ASUS41 KCTP 190410
RWRCTP

REGIONAL WEATHER ROUNDUP
NATIONAL WEATHER SERVICE STATE COLLEGE PA
1200 AM EDT SAT AUG 19 2017

Note: "fair" indicates few or no clouds below 12,000 feet with no
significant weather and/or obstructions to visibility.

* = STATION THAT DOES NOT REPORT PRECIPITATION /E.G. RAIN...SNOW...ETC/
    THUNDER OR FOG.

PAZ002>004-007>009-013>016-020>023-029>032-190500-
WESTERN PENNSYLVANIA

CITY           SKY/WX    TMP DP  RH WIND       PRES   REMARKS
ERIE           CLOUDY    72  66  81 SW5       29.86R
MEADVILLE      CLOUDY    68  63  84 SW5       29.91R
FRANKLIN*      MOCLDY    64  57  77 S5        29.93R
NEW CASTLE     FAIR      65  64  97 CALM      29.92R
BEAVER COUNTY  NOT AVBL
BUTLER*        FAIR      67  63  87 CALM      29.94R
PITTSBURGH INT FAIR      72  64  76 SW5       29.92R
PITTSBURGH     FAIR      72  61  68 W7        29.92R
INDIANA*       MOCLDY    68  64  88 CALM      29.95S
LATROBE        FAIR      66  64  94 SW7       29.94R
WASHINGTON CO* FAIR      64  63  94 CALM      29.94R
$$

PAZ004>006-010>012-017>019-024>028-033>037-041-042-045-046-049>053-190500-
CENTRAL PENNSYLVANIA

CITY           SKY/WX    TMP DP  RH WIND       PRES   REMARKS
BRADFORD       MOCLDY    66  61  84 CALM      29.93S
DUBOIS         MOCLDY    66  61  84 CALM      29.93R
CLEARFIELD     MOCLDY    67  63  87 NW6       29.91S
JOHNSTOWN      FAIR      67  61  81 SW7       29.96S
ALTOONA        FAIR      65  64  97 SE5       29.92F
STATE COLLEGE  FAIR      67  62  85 SW6       29.88S
WILLIAMSPORT   FAIR      72  70  93 CALM      29.82R
SELINSGROVE    FAIR      70  70 100 CALM      29.85R FOG
FT INDIANTOWN  FAIR      73  73 100 SW3       29.85S
CAPITAL CITY   FAIR      77  73  87 W6        29.84S
HARRISBURG     MOCLDY    78  75  90 VRB6      29.83S
YORK           FAIR      75  74  96 CALM      29.85F
$$

PAZ038>040-043-044-047-048-054-055-060>062-067>071-190500-
EASTERN PENNSYLVANIA

CITY           SKY/WX    TMP DP  RH WIND       PRES   REMARKS
SCRANTON       FAIR      74  69  85 SW3       29.85R
MOUNT POCONO   LGT RAIN  69  69 100 W6        29.89F
ALLENTOWN      CLOUDY    73  70  90 MISG      29.84F
QUAKERTOWN*    CLOUDY    72  72 100 CALM      29.85S
READING        FAIR      73  73 100 S5        29.83S
LANCASTER      CLOUDY    74  74 100 S5        29.85S
COATESVILLE    CLOUDY    73  73 100 VRB3      29.87F FOG
POTTSTOWN      CLOUDY    73  73 100 SW5       29.85F
BLUE BELL      MOCLDY    72  72 100 SW5       29.85S
DOYLESTOWN     CLOUDY    73  73 100 CALM      29.83F
WILLOW GROVE   NOT AVBL
NORTH PHILA    CLOUDY    77  74  90 SW5       29.84F
PHILADELPHIA   CLOUDY    76  73  91 SW10      29.83F
$$




USA.gov is the U.S. government's official web portal to all federal, state and local government web resources and services.